| time (UTC) | temp F | wind direction | speed MPH | gust MPH | rain 1hr in | rain 24hr in | rain mn in | humidity % | barometer mb |
| 20260831080003 | 88 | 230 | 3.0 | 7.0 | 0.00 | 0.00 | 0.00 | 63 | 1008.3 |
| 20260831075503 | 88 | 224 | 3.0 | 7.0 | 0.00 | 0.00 | 0.00 | 63 | 1008.2 |
| 20260831075003 | 88 | 228 | 3.0 | 9.0 | 0.00 | 0.00 | 0.00 | 63 | 1008.1 |
| 20260831074503 | 88 | 231 | 3.0 | 5.0 | 0.00 | 0.00 | 0.00 | 63 | 1008.0 |
| 20260831074003 | 87 | 248 | 1.0 | 5.0 | 0.00 | 0.00 | 0.00 | 63 | 1007.9 |
| 20260831073503 | 87 | 217 | 2.0 | 5.0 | 0.00 | 0.00 | 0.00 | 63 | 1008.0 |
| 20260831073003 | 87 | 235 | 2.0 | 7.0 | 0.00 | 0.00 | 0.00 | 64 | 1008.0 |
| 20260831072503 | 87 | 272 | 3.0 | 7.0 | 0.00 | 0.00 | 0.00 | 63 | 1007.9 |
| 20260831072003 | 87 | 3 | 4.0 | 8.0 | 0.00 | 0.00 | 0.00 | 64 | 1007.8 |
| 20260831071503 | 86 | 267 | 3.0 | 6.0 | 0.00 | 0.00 | 0.00 | 64 | 1007.9 |
| 20260831071003 | 86 | 320 | 2.0 | 6.0 | 0.00 | 0.00 | 0.00 | 64 | 1007.9 |
| 20260831070503 | 86 | 241 | 2.0 | 5.0 | 0.00 | 0.00 | 0.00 | 64 | 1007.9 |
| 20260831070004 | 86 | 312 | 3.0 | 8.0 | 0.00 | 0.00 | 0.00 | 64 | 1007.9 |
| 20260831065503 | 85 | 267 | 2.0 | 6.0 | 0.00 | 0.00 | 0.00 | 65 | 1008.0 |
| 20260831065003 | 85 | 240 | 2.0 | 6.0 | 0.00 | 0.00 | 0.00 | 65 | 1007.9 |
| 20260831064503 | 85 | 326 | 2.0 | 6.0 | 0.00 | 0.00 | 0.00 | 65 | 1008.0 |
| 20260831064003 | 85 | 308 | 2.0 | 7.0 | 0.00 | 0.00 | 0.00 | 65 | 1007.9 |
| 20260831063503 | 85 | 264 | 2.0 | 5.0 | 0.00 | 0.00 | 0.00 | 65 | 1007.8 |
| 20260831063003 | 85 | 289 | 2.0 | 5.0 | 0.00 | 0.00 | 0.00 | 65 | 1008.0 |
| 20260831062503 | 84 | 321 | 2.0 | 5.0 | 0.00 | 0.00 | 0.00 | 65 | 1008.0 |
| 20260831062003 | 84 | 313 | 3.0 | 5.0 | 0.00 | 0.00 | 0.00 | 65 | 1007.9 |
| 20260831061503 | 84 | 267 | 2.0 | 5.0 | 0.00 | 0.00 | 0.00 | 65 | 1008.0 |
| 20260831061003 | 84 | 285 | 2.0 | 6.0 | 0.00 | 0.00 | 0.00 | 66 | 1008.1 |
| 20260831060503 | 84 | 313 | 2.0 | 6.0 | 0.00 | 0.00 | 0.00 | 66 | 1007.9 |
| 20260831060003 | 84 | 286 | 1.0 | 4.0 | 0.00 | 0.00 | 0.00 | 66 | 1007.8 |
| 20260831055503 | 83 | 311 | 2.0 | 6.0 | 0.00 | 0.00 | 0.00 | 66 | 1007.8 |
| 20260831055003 | 83 | 291 | 2.0 | 6.0 | 0.00 | 0.00 | 0.00 | 66 | 1007.9 |
| 20260831054503 | 83 | 306 | 3.0 | 9.0 | 0.00 | 0.00 | 0.00 | 66 | 1007.9 |
| 20260831054003 | 83 | 305 | 2.0 | 6.0 | 0.00 | 0.00 | 0.00 | 66 | 1008.0 |
| 20260831053503 | 83 | 295 | 1.0 | 4.0 | 0.00 | 0.00 | 0.00 | 66 | 1007.9 |
| 20260831053003 | 82 | 305 | 1.0 | 3.0 | 0.00 | 0.00 | 0.00 | 66 | 1007.9 |
| 20260831052503 | 82 | 276 | 1.0 | 2.0 | 0.00 | 0.00 | 0.00 | 67 | 1007.8 |
| 20260831052003 | 82 | 278 | 1.0 | 3.0 | 0.00 | 0.00 | 0.00 | 67 | 1007.8 |
| 20260831051503 | 82 | 269 | 2.0 | 5.0 | 0.00 | 0.00 | 0.00 | 67 | 1007.9 |
| 20260831051003 | 82 | 275 | 0.0 | 3.0 | 0.00 | 0.00 | 0.00 | 67 | 1007.9 |
| 20260831050503 | 82 | 280 | 1.0 | 4.0 | 0.00 | 0.00 | 0.00 | 67 | 1007.8 |
| 20260831050003 | 81 | 286 | 1.0 | 4.0 | 0.00 | 0.00 | 0.00 | 67 | 1007.8 |
| 20260831045503 | 81 | 275 | 2.0 | 6.0 | 0.00 | 0.00 | 0.00 | 67 | 1007.8 |
| 20260831045003 | 81 | 272 | 2.0 | 5.0 | 0.00 | 0.00 | 0.00 | 67 | 1007.7 |
| 20260831044503 | 81 | 297 | 1.0 | 5.0 | 0.00 | 0.00 | 0.00 | 67 | 1007.6 |
| 20260831044003 | 81 | 317 | 2.0 | 6.0 | 0.00 | 0.00 | 0.00 | 67 | 1007.8 |
| 20260831043503 | 81 | 311 | 1.0 | 5.0 | 0.00 | 0.00 | 0.00 | 67 | 1007.6 |
| 20260831043003 | 81 | 308 | 1.0 | 4.0 | 0.00 | 0.00 | 0.00 | 67 | 1007.6 |
| 20260831042503 | 81 | 271 | 1.0 | 3.0 | 0.00 | 0.00 | 0.00 | 67 | 1007.6 |
| 20260831042003 | 81 | 275 | 2.0 | 3.0 | 0.00 | 0.00 | 0.00 | 67 | 1007.7 |
| 20260831041503 | 81 | 260 | 1.0 | 2.0 | 0.00 | 0.00 | 0.00 | 67 | 1007.6 |
| 20260831041003 | 81 | 272 | 1.0 | 3.0 | 0.00 | 0.00 | 0.00 | 67 | 1007.7 |
| 20260831040503 | 82 | 269 | 1.0 | 4.0 | 0.00 | 0.00 | 0.00 | 67 | 1007.6 |
| 20260831040003 | 82 | 276 | 1.0 | 3.0 | 0.00 | 0.00 | 0.00 | 67 | 1007.6 |
| 20260831035503 | 82 | 268 | 0.0 | 2.0 | 0.00 | 0.00 | 0.00 | 67 | 1007.6 |
| 20260831035003 | 82 | 268 | 0.0 | 2.0 | 0.00 | 0.00 | 0.00 | 66 | 1007.6 |
| 20260831034503 | 82 | 249 | 1.0 | 3.0 | 0.00 | 0.00 | 0.00 | 66 | 1007.5 |
| 20260831034003 | 82 | 271 | 1.0 | 4.0 | 0.00 | 0.00 | 0.00 | 67 | 1007.6 |
| 20260831033503 | 82 | 278 | 1.0 | 5.0 | 0.00 | 0.00 | 0.00 | 66 | 1007.6 |
| 20260831033003 | 82 | 325 | 1.0 | 5.0 | 0.00 | 0.00 | 0.00 | 66 | 1007.5 |
| 20260831032503 | 82 | 296 | 3.0 | 8.0 | 0.00 | 0.00 | 0.00 | 67 | 1007.4 |
| 20260831032003 | 82 | 290 | 2.0 | 6.0 | 0.00 | 0.00 | 0.00 | 67 | 1007.5 |
| 20260831031503 | 82 | 274 | 2.0 | 6.0 | 0.00 | 0.00 | 0.00 | 66 | 1007.4 |
| 20260831031003 | 82 | 269 | 3.0 | 6.0 | 0.00 | 0.00 | 0.00 | 66 | 1007.5 |
| 20260831030503 | 82 | 263 | 3.0 | 7.0 | 0.00 | 0.00 | 0.00 | 66 | 1007.5 |
| 20260831030003 | 82 | 264 | 2.0 | 7.0 | 0.00 | 0.00 | 0.00 | 66 | 1007.4 |
| 20260831025503 | 82 | 272 | 2.0 | 6.0 | 0.00 | 0.00 | 0.00 | 66 | 1007.4 |
| 20260831025003 | 82 | 270 | 3.0 | 8.0 | 0.00 | 0.00 | 0.00 | 66 | 1007.4 |
| 20260831024503 | 82 | 266 | 3.0 | 6.0 | 0.00 | 0.00 | 0.00 | 66 | 1007.3 |
| 20260831024003 | 82 | 275 | 3.0 | 8.0 | 0.00 | 0.00 | 0.00 | 65 | 1007.2 |
| 20260831023503 | 82 | 279 | 2.0 | 6.0 | 0.00 | 0.00 | 0.00 | 65 | 1007.3 |
| 20260831023003 | 82 | 282 | 2.0 | 7.0 | 0.00 | 0.00 | 0.00 | 65 | 1007.2 |
| 20260831022503 | 82 | 273 | 3.0 | 7.0 | 0.00 | 0.00 | 0.00 | 65 | 1007.2 |
| 20260831022003 | 82 | 266 | 3.0 | 8.0 | 0.00 | 0.00 | 0.00 | 65 | 1007.2 |
| 20260831021503 | 82 | 271 | 4.0 | 10.0 | 0.00 | 0.00 | 0.00 | 65 | 1007.2 |
| 20260831021003 | 82 | 283 | 4.0 | 8.0 | 0.00 | 0.00 | 0.00 | 64 | 1007.1 |
| 20260831020503 | 83 | 274 | 4.0 | 9.0 | 0.00 | 0.00 | 0.00 | 64 | 1007.5 |
| 20260831020003 | 83 | 258 | 3.0 | 6.0 | 0.00 | 0.00 | 0.00 | 64 | 1007.4 |
| 20260831015503 | 83 | 265 | 3.0 | 6.0 | 0.00 | 0.00 | 0.00 | 64 | 1007.4 |
| 20260831015003 | 83 | 269 | 4.0 | 9.0 | 0.00 | 0.00 | 0.00 | 64 | 1007.3 |
| 20260831014503 | 83 | 268 | 3.0 | 7.0 | 0.00 | 0.00 | 0.00 | 64 | 1007.3 |
| 20260831014003 | 83 | 269 | 3.0 | 7.0 | 0.00 | 0.00 | 0.00 | 64 | 1007.4 |
| 20260831013503 | 83 | 267 | 3.0 | 6.0 | 0.00 | 0.00 | 0.00 | 64 | 1007.2 |
| 20260831013003 | 83 | 274 | 5.0 | 12.0 | 0.00 | 0.00 | 0.00 | 64 | 1007.1 |
| 20260831012503 | 83 | 273 | 3.0 | 8.0 | 0.00 | 0.00 | 0.00 | 64 | 1007.1 |
| 20260831012003 | 83 | 283 | 2.0 | 6.0 | 0.00 | 0.00 | 0.00 | 64 | 1007.1 |
| 20260831011503 | 83 | 270 | 3.0 | 9.0 | 0.00 | 0.00 | 0.00 | 64 | 1007.0 |
| 20260831011003 | 83 | 277 | 2.0 | 8.0 | 0.00 | 0.00 | 0.00 | 64 | 1007.0 |
| 20260831010503 | 83 | 313 | 2.0 | 8.0 | 0.00 | 0.00 | 0.00 | 64 | 1007.1 |
| 20260831010003 | 83 | 289 | 2.0 | 5.0 | 0.00 | 0.00 | 0.00 | 64 | 1007.1 |
| 20260831005503 | 83 | 283 | 2.0 | 5.0 | 0.00 | 0.00 | 0.00 | 64 | 1007.2 |
| 20260831005003 | 83 | 289 | 2.0 | 7.0 | 0.00 | 0.00 | 0.00 | 64 | 1007.0 |
| 20260831004503 | 83 | 291 | 2.0 | 9.0 | 0.00 | 0.00 | 0.00 | 64 | 1007.0 |
| 20260831004003 | 83 | 281 | 2.0 | 5.0 | 0.00 | 0.00 | 0.00 | 64 | 1007.1 |
| 20260831003503 | 83 | 292 | 2.0 | 7.0 | 0.00 | 0.00 | 0.00 | 64 | 1007.0 |
| 20260831003003 | 83 | 275 | 3.0 | 8.0 | 0.00 | 0.00 | 0.00 | 65 | 1006.9 |
| 20260831002503 | 83 | 289 | 3.0 | 8.0 | 0.00 | 0.00 | 0.00 | 65 | 1007.1 |
| 20260831002003 | 83 | 314 | 3.0 | 8.0 | 0.00 | 0.00 | 0.00 | 65 | 1007.0 |
| 20260831001503 | 83 | 290 | 3.0 | 8.0 | 0.00 | 0.00 | 0.00 | 65 | 1007.1 |
| 20260831001003 | 83 | 266 | 4.0 | 8.0 | 0.00 | 0.00 | 0.00 | 65 | 1007.1 |
| 20260831000503 | 83 | 276 | 3.0 | 7.0 | 0.00 | 0.00 | 0.00 | 65 | 1006.9 |
| 20260831000003 | 83 | 267 | 3.0 | 7.0 | 0.00 | 0.00 | 0.00 | 65 | 1007.0 |
| 20260830235503 | 83 | 267 | 3.0 | 6.0 | 0.00 | 0.00 | 0.00 | 65 | 1006.9 |
| 20260830235003 | 83 | 272 | 2.0 | 6.0 | 0.00 | 0.00 | 0.00 | 65 | 1006.8 |
| 20260830234503 | 83 | 262 | 2.0 | 5.0 | 0.00 | 0.00 | 0.00 | 65 | 1006.8 |
| 20260830234003 | 83 | 262 | 2.0 | 4.0 | 0.00 | 0.00 | 0.00 | 65 | 1006.8 |
| 20260830233503 | 83 | 255 | 2.0 | 4.0 | 0.00 | 0.00 | 0.00 | 65 | 1006.9 |
| 20260830233003 | 84 | 243 | 2.0 | 5.0 | 0.00 | 0.00 | 0.00 | 65 | 1006.9 |
| 20260830232503 | 84 | 242 | 1.0 | 4.0 | 0.00 | 0.00 | 0.00 | 65 | 1006.7 |
| 20260830232003 | 84 | 235 | 1.0 | 4.0 | 0.00 | 0.00 | 0.00 | 65 | 1006.7 |
| 20260830231503 | 84 | 211 | 2.0 | 3.0 | 0.00 | 0.00 | 0.00 | 65 | 1006.7 |
| 20260830231003 | 84 | 224 | 2.0 | 6.0 | 0.00 | 0.00 | 0.00 | 65 | 1006.7 |
| 20260830230503 | 84 | 213 | 2.0 | 5.0 | 0.00 | 0.00 | 0.00 | 65 | 1006.7 |
| 20260830230003 | 84 | 239 | 2.0 | 5.0 | 0.00 | 0.00 | 0.00 | 65 | 1006.7 |
| 20260830225503 | 84 | 249 | 2.0 | 7.0 | 0.00 | 0.00 | 0.00 | 65 | 1006.7 |
| 20260830225003 | 84 | 252 | 2.0 | 5.0 | 0.00 | 0.00 | 0.00 | 65 | 1006.7 |
| 20260830224503 | 84 | 257 | 2.0 | 5.0 | 0.00 | 0.00 | 0.00 | 65 | 1006.7 |
| 20260830224003 | 84 | 230 | 3.0 | 5.0 | 0.00 | 0.00 | 0.00 | 65 | 1006.7 |
| 20260830223503 | 84 | 218 | 3.0 | 6.0 | 0.00 | 0.00 | 0.00 | 65 | 1006.7 |
| 20260830223003 | 84 | 215 | 3.0 | 9.0 | 0.00 | 0.00 | 0.00 | 66 | 1006.7 |
| 20260830222503 | 84 | 216 | 3.0 | 7.0 | 0.00 | 0.00 | 0.00 | 66 | 1006.7 |
| 20260830222003 | 84 | 220 | 4.0 | 9.0 | 0.00 | 0.00 | 0.00 | 66 | 1006.6 |
| 20260830221503 | 85 | 224 | 5.0 | 10.0 | 0.00 | 0.00 | 0.00 | 66 | 1006.7 |
| 20260830221003 | 85 | 214 | 4.0 | 8.0 | 0.00 | 0.00 | 0.00 | 66 | 1006.7 |
| 20260830220503 | 85 | 213 | 3.0 | 5.0 | 0.00 | 0.00 | 0.00 | 67 | 1006.8 |
| 20260830220005 | 85 | 214 | 3.0 | 6.0 | 0.00 | 0.00 | 0.00 | 67 | 1006.7 |
| 20260830215503 | 86 | 215 | 2.0 | 4.0 | 0.00 | 0.00 | 0.00 | 67 | 1006.7 |
| 20260830215003 | 86 | 229 | 3.0 | 6.0 | 0.00 | 0.00 | 0.00 | 67 | 1006.7 |
| 20260830214503 | 86 | 241 | 2.0 | 6.0 | 0.00 | 0.00 | 0.00 | 66 | 1006.7 |
| 20260830214003 | 86 | 224 | 1.0 | 3.0 | 0.00 | 0.00 | 0.00 | 65 | 1006.8 |
| 20260830213503 | 86 | 222 | 2.0 | 5.0 | 0.00 | 0.00 | 0.00 | 65 | 1006.7 |
| 20260830213003 | 86 | 208 | 2.0 | 4.0 | 0.00 | 0.00 | 0.00 | 65 | 1006.6 |
| 20260830212503 | 86 | 227 | 1.0 | 3.0 | 0.00 | 0.00 | 0.00 | 65 | 1006.6 |
| 20260830212003 | 86 | 287 | 0.0 | 5.0 | 0.00 | 0.00 | 0.00 | 65 | 1006.5 |
| 20260830211503 | 86 | 337 | 0.0 | 2.0 | 0.00 | 0.00 | 0.00 | 65 | 1006.7 |
| 20260830211003 | 85 | 60 | 0.0 | 1.0 | 0.00 | 0.00 | 0.00 | 65 | 1006.7 |
| 20260830210503 | 86 | 0 | 0.0 | 0.0 | 0.00 | 0.00 | 0.00 | 65 | 1006.6 |
| 20260830210003 | 86 | 157 | 0.0 | 2.0 | 0.00 | 0.00 | 0.00 | 65 | 1006.7 |
| 20260830205503 | 86 | 156 | 0.0 | 2.0 | 0.00 | 0.00 | 0.00 | 65 | 1006.6 |
| 20260830205003 | 86 | 180 | 0.0 | 1.0 | 0.00 | 0.00 | 0.00 | 66 | 1006.6 |
| 20260830204503 | 86 | 180 | 0.0 | 2.0 | 0.00 | 0.00 | 0.00 | 66 | 1006.6 |
| 20260830204003 | 85 | 170 | 1.0 | 3.0 | 0.00 | 0.00 | 0.00 | 66 | 1006.6 |
| 20260830203503 | 85 | 157 | 0.0 | 1.0 | 0.00 | 0.00 | 0.00 | 66 | 1006.7 |
| 20260830203003 | 85 | 168 | 0.0 | 3.0 | 0.00 | 0.00 | 0.00 | 66 | 1006.7 |
| 20260830202503 | 85 | 155 | 0.0 | 3.0 | 0.00 | 0.00 | 0.00 | 66 | 1006.6 |
| 20260830202003 | 85 | 136 | 1.0 | 3.0 | 0.00 | 0.00 | 0.00 | 67 | 1006.7 |
| 20260830201503 | 85 | 100 | 0.0 | 2.0 | 0.00 | 0.00 | 0.00 | 66 | 1006.7 |
| 20260830201003 | 85 | 116 | 0.0 | 2.0 | 0.00 | 0.00 | 0.00 | 66 | 1006.6 |
| 20260830200503 | 85 | 138 | 1.0 | 3.0 | 0.00 | 0.00 | 0.00 | 66 | 1006.5 |
| 20260830200003 | 85 | 126 | 1.0 | 4.0 | 0.00 | 0.00 | 0.00 | 66 | 1006.4 |
| 20260830195503 | 85 | 120 | 1.0 | 4.0 | 0.00 | 0.00 | 0.00 | 66 | 1006.6 |
| 20260830195003 | 85 | 128 | 2.0 | 4.0 | 0.00 | 0.00 | 0.00 | 66 | 1006.6 |
| 20260830194503 | 85 | 136 | 2.0 | 5.0 | 0.00 | 0.00 | 0.00 | 66 | 1006.6 |
| 20260830194003 | 85 | 143 | 3.0 | 7.0 | 0.00 | 0.00 | 0.00 | 66 | 1006.6 |
| 20260830193503 | 85 | 147 | 3.0 | 6.0 | 0.00 | 0.00 | 0.00 | 66 | 1006.6 |
| 20260830193003 | 85 | 161 | 3.0 | 7.0 | 0.00 | 0.00 | 0.00 | 66 | 1006.7 |
| 20260830192503 | 85 | 149 | 3.0 | 7.0 | 0.00 | 0.00 | 0.00 | 66 | 1006.6 |
| 20260830192003 | 85 | 155 | 3.0 | 9.0 | 0.00 | 0.00 | 0.00 | 66 | 1006.6 |
| 20260830191503 | 85 | 150 | 3.0 | 7.0 | 0.00 | 0.00 | 0.00 | 66 | 1006.7 |
| 20260830191003 | 85 | 113 | 2.0 | 5.0 | 0.00 | 0.00 | 0.00 | 66 | 1006.6 |
| 20260830190503 | 85 | 107 | 2.0 | 6.0 | 0.00 | 0.00 | 0.00 | 66 | 1006.7 |
| 20260830190003 | 85 | 123 | 3.0 | 8.0 | 0.00 | 0.00 | 0.00 | 66 | 1006.7 |
| 20260830185503 | 85 | 119 | 3.0 | 6.0 | 0.00 | 0.00 | 0.00 | 66 | 1006.6 |
| 20260830185003 | 85 | 140 | 4.0 | 7.0 | 0.00 | 0.00 | 0.00 | 67 | 1006.5 |
| 20260830184503 | 85 | 128 | 3.0 | 10.0 | 0.00 | 0.00 | 0.00 | 67 | 1006.4 |
| 20260830184003 | 85 | 114 | 3.0 | 8.0 | 0.00 | 0.00 | 0.00 | 67 | 1006.3 |
| 20260830183503 | 85 | 117 | 3.0 | 6.0 | 0.00 | 0.00 | 0.00 | 67 | 1006.2 |
| 20260830183006 | 85 | 132 | 4.0 | 10.0 | 0.00 | 0.00 | 0.00 | 67 | 1006.2 |
| 20260830182503 | 85 | 141 | 4.0 | 8.0 | 0.00 | 0.00 | 0.00 | 67 | 1006.0 |
| 20260830182003 | 85 | 144 | 3.0 | 9.0 | 0.00 | 0.00 | 0.00 | 67 | 1006.0 |
| 20260830181503 | 85 | 147 | 4.0 | 11.0 | 0.00 | 0.00 | 0.00 | 67 | 1005.8 |
| 20260830181003 | 85 | 126 | 4.0 | 11.0 | 0.00 | 0.00 | 0.00 | 67 | 1006.0 |
| 20260830180503 | 85 | 127 | 3.0 | 9.0 | 0.00 | 0.00 | 0.00 | 67 | 1005.9 |
| 20260830180003 | 85 | 133 | 4.0 | 11.0 | 0.00 | 0.00 | 0.00 | 67 | 1006.0 |
| 20260830175503 | 86 | 120 | 3.0 | 7.0 | 0.00 | 0.00 | 0.00 | 67 | 1005.9 |
| 20260830175003 | 85 | 139 | 3.0 | 8.0 | 0.00 | 0.00 | 0.00 | 67 | 1005.8 |
| 20260830174503 | 85 | 133 | 4.0 | 9.0 | 0.00 | 0.00 | 0.00 | 67 | 1005.7 |
| 20260830174003 | 86 | 133 | 4.0 | 7.0 | 0.00 | 0.00 | 0.00 | 67 | 1005.8 |
| 20260830173503 | 86 | 135 | 3.0 | 8.0 | 0.00 | 0.00 | 0.00 | 67 | 1005.8 |
| 20260830173003 | 86 | 132 | 4.0 | 11.0 | 0.00 | 0.00 | 0.00 | 67 | 1005.8 |
| 20260830172503 | 86 | 132 | 3.0 | 6.0 | 0.00 | 0.00 | 0.00 | 67 | 1005.7 |
| 20260830172003 | 86 | 130 | 4.0 | 10.0 | 0.00 | 0.00 | 0.00 | 67 | 1005.7 |
| 20260830171503 | 86 | 145 | 4.0 | 8.0 | 0.00 | 0.00 | 0.00 | 67 | 1005.7 |
| 20260830171003 | 86 | 128 | 5.0 | 11.0 | 0.00 | 0.00 | 0.00 | 67 | 1005.6 |
| 20260830170503 | 86 | 144 | 6.0 | 12.0 | 0.00 | 0.00 | 0.00 | 67 | 1005.6 |
| 20260830170003 | 86 | 118 | 4.0 | 10.0 | 0.00 | 0.00 | 0.00 | 67 | 1005.7 |
| 20260830165503 | 86 | 121 | 4.0 | 12.0 | 0.00 | 0.00 | 0.00 | 67 | 1005.6 |
| 20260830165003 | 86 | 133 | 4.0 | 9.0 | 0.00 | 0.00 | 0.00 | 67 | 1005.8 |
| 20260830164503 | 87 | 133 | 4.0 | 13.0 | 0.00 | 0.00 | 0.00 | 67 | 1005.7 |
| 20260830164003 | 87 | 144 | 6.0 | 12.0 | 0.00 | 0.00 | 0.00 | 67 | 1005.8 |
| 20260830163503 | 87 | 141 | 5.0 | 10.0 | 0.00 | 0.00 | 0.00 | 67 | 1005.9 |
| 20260830163003 | 87 | 146 | 6.0 | 12.0 | 0.00 | 0.00 | 0.00 | 67 | 1005.8 |
| 20260830162503 | 87 | 138 | 5.0 | 11.0 | 0.00 | 0.00 | 0.00 | 67 | 1006.0 |
| 20260830162003 | 87 | 151 | 6.0 | 13.0 | 0.00 | 0.00 | 0.00 | 67 | 1006.0 |
| 20260830161503 | 87 | 139 | 6.0 | 13.0 | 0.00 | 0.00 | 0.00 | 67 | 1006.0 |
| 20260830161004 | 87 | 133 | 5.0 | 11.0 | 0.00 | 0.00 | 0.00 | 66 | 1006.0 |
| 20260830160503 | 88 | 147 | 5.0 | 12.0 | 0.00 | 0.00 | 0.00 | 66 | 1006.0 |
| 20260830160003 | 88 | 148 | 5.0 | 13.0 | 0.00 | 0.00 | 0.00 | 66 | 1006.1 |
| 20260830155503 | 88 | 144 | 6.0 | 15.0 | 0.00 | 0.00 | 0.00 | 66 | 1006.0 |
| 20260830155003 | 88 | 149 | 6.0 | 13.0 | 0.00 | 0.00 | 0.00 | 66 | 1006.0 |
| 20260830154503 | 88 | 144 | 5.0 | 12.0 | 0.00 | 0.00 | 0.00 | 66 | 1006.2 |
| 20260830154003 | 89 | 129 | 5.0 | 10.0 | 0.00 | 0.00 | 0.00 | 66 | 1006.3 |
| 20260830153503 | 89 | 143 | 5.0 | 14.0 | 0.00 | 0.00 | 0.00 | 65 | 1006.2 |
| 20260830153003 | 89 | 138 | 5.0 | 11.0 | 0.00 | 0.00 | 0.00 | 65 | 1006.3 |
| 20260830152503 | 89 | 156 | 5.0 | 10.0 | 0.00 | 0.00 | 0.00 | 65 | 1006.3 |
| 20260830152004 | 89 | 147 | 5.0 | 11.0 | 0.00 | 0.00 | 0.00 | 65 | 1006.3 |
| 20260830151503 | 89 | 141 | 5.0 | 14.0 | 0.00 | 0.00 | 0.00 | 65 | 1006.3 |
| 20260830151003 | 89 | 141 | 5.0 | 12.0 | 0.00 | 0.00 | 0.00 | 65 | 1006.3 |
| 20260830150503 | 89 | 145 | 5.0 | 13.0 | 0.00 | 0.00 | 0.00 | 65 | 1006.3 |
| 20260830150003 | 89 | 149 | 6.0 | 12.0 | 0.00 | 0.00 | 0.00 | 65 | 1006.4 |
| 20260830145503 | 90 | 134 | 5.0 | 14.0 | 0.00 | 0.00 | 0.00 | 64 | 1006.3 |
| 20260830145003 | 90 | 144 | 7.0 | 15.0 | 0.00 | 0.00 | 0.00 | 64 | 1006.5 |
| 20260830144503 | 90 | 158 | 5.0 | 14.0 | 0.00 | 0.00 | 0.00 | 64 | 1006.4 |
| 20260830144003 | 90 | 140 | 6.0 | 14.0 | 0.00 | 0.00 | 0.00 | 63 | 1006.5 |
| 20260830143503 | 90 | 135 | 7.0 | 15.0 | 0.00 | 0.00 | 0.00 | 63 | 1006.6 |
| 20260830143003 | 90 | 150 | 6.0 | 12.0 | 0.00 | 0.00 | 0.00 | 62 | 1006.6 |
| 20260830142503 | 90 | 139 | 6.0 | 13.0 | 0.00 | 0.00 | 0.00 | 63 | 1006.4 |
| 20260830142003 | 90 | 144 | 6.0 | 14.0 | 0.00 | 0.00 | 0.00 | 63 | 1006.5 |
| 20260830141503 | 90 | 139 | 5.0 | 8.0 | 0.00 | 0.00 | 0.00 | 63 | 1006.6 |
| 20260830141003 | 90 | 133 | 5.0 | 11.0 | 0.00 | 0.00 | 0.00 | 64 | 1006.6 |
| 20260830140503 | 90 | 138 | 6.0 | 12.0 | 0.00 | 0.00 | 0.00 | 64 | 1006.6 |
| 20260830140003 | 90 | 132 | 5.0 | 10.0 | 0.00 | 0.00 | 0.00 | 64 | 1006.7 |
| 20260830135503 | 90 | 139 | 6.0 | 11.0 | 0.00 | 0.00 | 0.00 | 64 | 1006.6 |
| 20260830135003 | 91 | 145 | 5.0 | 13.0 | 0.00 | 0.00 | 0.00 | 64 | 1006.6 |
| 20260830134503 | 91 | 140 | 5.0 | 12.0 | 0.00 | 0.00 | 0.00 | 64 | 1006.9 |
| 20260830134003 | 91 | 140 | 6.0 | 14.0 | 0.00 | 0.00 | 0.00 | 64 | 1007.0 |
| 20260830133503 | 91 | 140 | 5.0 | 11.0 | 0.00 | 0.00 | 0.00 | 63 | 1006.8 |
| 20260830133003 | 90 | 145 | 7.0 | 14.0 | 0.00 | 0.00 | 0.00 | 63 | 1007.0 |
| 20260830132503 | 91 | 136 | 7.0 | 13.0 | 0.00 | 0.00 | 0.00 | 63 | 1007.0 |
| 20260830132003 | 91 | 119 | 6.0 | 12.0 | 0.00 | 0.00 | 0.00 | 62 | 1007.1 |
| 20260830131503 | 92 | 130 | 5.0 | 13.0 | 0.00 | 0.00 | 0.00 | 61 | 1007.2 |
| 20260830131003 | 91 | 143 | 5.0 | 16.0 | 0.00 | 0.00 | 0.00 | 61 | 1007.3 |
| 20260830130503 | 91 | 151 | 5.0 | 11.0 | 0.00 | 0.00 | 0.00 | 61 | 1007.4 |
| 20260830130003 | 91 | 147 | 7.0 | 15.0 | 0.00 | 0.00 | 0.00 | 61 | 1007.3 |
| 20260830125503 | 91 | 143 | 7.0 | 14.0 | 0.00 | 0.00 | 0.00 | 60 | 1007.4 |
| 20260830125003 | 92 | 134 | 5.0 | 16.0 | 0.00 | 0.00 | 0.00 | 59 | 1007.3 |
| 20260830124503 | 92 | 144 | 6.0 | 13.0 | 0.00 | 0.00 | 0.00 | 59 | 1007.5 |
| 20260830124003 | 92 | 142 | 6.0 | 14.0 | 0.00 | 0.00 | 0.00 | 58 | 1007.6 |
| 20260830123503 | 92 | 147 | 5.0 | 11.0 | 0.00 | 0.00 | 0.00 | 58 | 1007.5 |
| 20260830123003 | 91 | 144 | 6.0 | 11.0 | 0.00 | 0.00 | 0.00 | 58 | 1007.5 |
| 20260830122503 | 91 | 138 | 6.0 | 12.0 | 0.00 | 0.00 | 0.00 | 60 | 1007.6 |
| 20260830122003 | 92 | 151 | 5.0 | 12.0 | 0.00 | 0.00 | 0.00 | 59 | 1007.7 |
| 20260830121503 | 91 | 129 | 6.0 | 12.0 | 0.00 | 0.00 | 0.00 | 59 | 1007.8 |
| 20260830121003 | 92 | 143 | 5.0 | 12.0 | 0.00 | 0.00 | 0.00 | 58 | 1007.9 |
| 20260830120503 | 92 | 138 | 4.0 | 10.0 | 0.00 | 0.00 | 0.00 | 57 | 1007.9 |
| 20260830120003 | 92 | 163 | 4.0 | 10.0 | 0.00 | 0.00 | 0.00 | 56 | 1007.9 |
| 20260830115503 | 93 | 136 | 4.0 | 11.0 | 0.00 | 0.00 | 0.00 | 57 | 1008.0 |
| 20260830115003 | 93 | 141 | 4.0 | 8.0 | 0.00 | 0.00 | 0.00 | 58 | 1007.9 |
| 20260830114503 | 92 | 155 | 4.0 | 9.0 | 0.00 | 0.00 | 0.00 | 58 | 1008.1 |
| 20260830114003 | 92 | 138 | 4.0 | 12.0 | 0.00 | 0.00 | 0.00 | 57 | 1008.1 |
| 20260830113503 | 92 | 156 | 3.0 | 7.0 | 0.00 | 0.00 | 0.00 | 58 | 1008.0 |
| 20260830113003 | 92 | 143 | 3.0 | 8.0 | 0.00 | 0.00 | 0.00 | 58 | 1008.1 |
| 20260830112503 | 92 | 152 | 3.0 | 10.0 | 0.00 | 0.00 | 0.00 | 59 | 1008.2 |
| 20260830112003 | 92 | 151 | 5.0 | 11.0 | 0.00 | 0.00 | 0.00 | 58 | 1008.1 |
| 20260830111503 | 92 | 161 | 3.0 | 5.0 | 0.00 | 0.00 | 0.00 | 59 | 1008.1 |
| 20260830111003 | 92 | 150 | 4.0 | 9.0 | 0.00 | 0.00 | 0.00 | 59 | 1008.1 |
| 20260830110503 | 91 | 139 | 4.0 | 9.0 | 0.00 | 0.00 | 0.00 | 60 | 1008.2 |
| 20260830110004 | 90 | 149 | 3.0 | 11.0 | 0.00 | 0.00 | 0.00 | 63 | 1008.3 |
| 20260830105503 | 91 | 150 | 4.0 | 11.0 | 0.00 | 0.00 | 0.00 | 63 | 1008.4 |
| 20260830105003 | 91 | 144 | 4.0 | 7.0 | 0.00 | 0.00 | 0.00 | 63 | 1008.4 |
| 20260830104503 | 90 | 150 | 4.0 | 9.0 | 0.00 | 0.00 | 0.00 | 63 | 1008.4 |
| 20260830104003 | 90 | 152 | 5.0 | 14.0 | 0.00 | 0.00 | 0.00 | 63 | 1008.5 |
| 20260830103503 | 90 | 143 | 5.0 | 10.0 | 0.00 | 0.00 | 0.00 | 62 | 1008.4 |
| 20260830103003 | 91 | 143 | 4.0 | 10.0 | 0.00 | 0.00 | 0.00 | 61 | 1008.4 |
| 20260830102503 | 91 | 153 | 3.0 | 8.0 | 0.00 | 0.00 | 0.00 | 61 | 1008.3 |
| 20260830102003 | 90 | 168 | 4.0 | 10.0 | 0.00 | 0.00 | 0.00 | 61 | 1008.4 |
| 20260830101503 | 91 | 157 | 5.0 | 11.0 | 0.00 | 0.00 | 0.00 | 60 | 1008.4 |
| 20260830101003 | 91 | 158 | 3.0 | 6.0 | 0.00 | 0.00 | 0.00 | 60 | 1008.5 |
| 20260830100503 | 90 | 153 | 4.0 | 8.0 | 0.00 | 0.00 | 0.00 | 60 | 1008.5 |
| 20260830100003 | 90 | 155 | 5.0 | 11.0 | 0.00 | 0.00 | 0.00 | 60 | 1008.6 |
| 20260830095503 | 91 | 181 | 4.0 | 9.0 | 0.00 | 0.00 | 0.00 | 59 | 1008.7 |
| 20260830095003 | 90 | 171 | 4.0 | 8.0 | 0.00 | 0.00 | 0.00 | 59 | 1008.8 |
| 20260830094503 | 90 | 185 | 3.0 | 5.0 | 0.00 | 0.00 | 0.00 | 59 | 1008.8 |
| 20260830094003 | 90 | 164 | 4.0 | 9.0 | 0.00 | 0.00 | 0.00 | 59 | 1009.0 |
| 20260830093503 | 90 | 178 | 4.0 | 7.0 | 0.00 | 0.00 | 0.00 | 59 | 1009.0 |
| 20260830093003 | 90 | 160 | 4.0 | 9.0 | 0.00 | 0.00 | 0.00 | 59 | 1009.0 |
| 20260830092503 | 90 | 179 | 4.0 | 9.0 | 0.00 | 0.00 | 0.00 | 58 | 1009.1 |
| 20260830092003 | 90 | 164 | 4.0 | 8.0 | 0.00 | 0.00 | 0.00 | 57 | 1009.2 |
| 20260830091503 | 90 | 173 | 4.0 | 8.0 | 0.00 | 0.00 | 0.00 | 58 | 1009.0 |
| 20260830091003 | 91 | 194 | 4.0 | 6.0 | 0.00 | 0.00 | 0.00 | 57 | 1009.2 |
| 20260830090503 | 91 | 168 | 3.0 | 8.0 | 0.00 | 0.00 | 0.00 | 55 | 1009.2 |
| 20260830090004 | 91 | 168 | 3.0 | 7.0 | 0.00 | 0.00 | 0.00 | 53 | 1009.2 |
| 20260830085503 | 91 | 205 | 2.0 | 5.0 | 0.00 | 0.00 | 0.00 | 53 | 1009.2 |
| 20260830085003 | 91 | 213 | 2.0 | 5.0 | 0.00 | 0.00 | 0.00 | 54 | 1009.2 |
| 20260830084503 | 90 | 185 | 3.0 | 7.0 | 0.00 | 0.00 | 0.00 | 53 | 1009.2 |
| 20260830084003 | 90 | 191 | 4.0 | 7.0 | 0.00 | 0.00 | 0.00 | 55 | 1009.3 |
| 20260830083503 | 90 | 190 | 4.0 | 8.0 | 0.00 | 0.00 | 0.00 | 55 | 1009.1 |
| 20260830083003 | 90 | 186 | 4.0 | 8.0 | 0.00 | 0.00 | 0.00 | 54 | 1009.3 |
| 20260830082503 | 92 | 143 | 3.0 | 7.0 | 0.00 | 0.00 | 0.00 | 50 | 1009.3 |
| 20260830082003 | 92 | 143 | 2.0 | 6.0 | 0.00 | 0.00 | 0.00 | 46 | 1009.1 |
| 20260830081503 | 92 | 147 | 2.0 | 4.0 | 0.00 | 0.00 | 0.00 | 45 | 1009.1 |
| 20260830081003 | 92 | 158 | 3.0 | 5.0 | 0.00 | 0.00 | 0.00 | 43 | 1009.1 |
| 20260830080503 | 93 | 141 | 3.0 | 7.0 | 0.00 | 0.00 | 0.00 | 44 | 1009.1 |